Location: Chandolas
(44.4033°N, 4.2533°E)
Time: 16:23:07
(UTC+00:00)

deb Kosmos-1763 - Pass Details

Date: 15 November 2019
Orbit: 473 x 485 km, 74.0° (Epoch: 06 December)

Event Time Altitude Azimuth Distance (km) Brightness Sun altitude
Exits shadow 04:44:34 60° 220° (SW) 563 4.1 -20.3°
Maximum altitude 04:45:10 79° 291° (WNW) 501 3.9 -20.2°
Drops below altitude 10° 04:48:53 10° 18° (NNE) 1,681 6.9 -19.5°
Sets 04:51:01 0° 20° (NNE) 2,566 7.9 -19.2°
